Notices

What's New in latest Release from April 7th, 2021:

- Updated Glossary, including Speed of Maximum Gust, and Total Hourly Precipitation

- Updated national and regional climate services offices contacts and prices information

- Addition of station inventory lists for 1981-2010, 1971-2000, and 1961-1990 Normals.

If you haven't already, please take our survey and provide feedback about our website: https://eccc.sondage-survey.ca/f/LanguageSelection.aspx?s=442ca660-fcf1-47c0-95a9-59707d6fd709

Hourly Data Report for October 23, 2015

IQALUIT CLIMATE
NUNAVUT

63°44'50.000" N
68°32'40.000" W
33.50 m
2402592
71321
XFB

Download Data

Hourly Data (October 2015)
Hourly Data Report for October 23, 2015
TIME
LST
Temp Definition
°C
Dew Point Definition
°C
Rel Hum Definition
%
Precip. Amount Definition
mm

Wind Dir Definition
10's deg

Wind Spd Definition
km/h
Visibility Definition
km
Stn Press Definition
kPa
Hmdx Definition


Wind Chill Definition


Weather Definition


00:00 -6.5 -10.0 76 0.0 31 22   101.80   -14 LegendNANA
01:00 -6.9 -10.0 78 0.0 31 21   101.82   -14 LegendNANA
02:00 -7.3 -10.3 79 0.0 32 16   101.83   -14 LegendNANA
03:00 -7.7 -10.4 81 0.2 32 17   101.80   -14 LegendNANA
04:00 -8.4 -11.5 78 0.0 31 23   101.82   -16 LegendNANA
05:00 -8.3 -11.7 76 0.0 31 19   101.85   -16 LegendNANA
06:00 -8.2 -11.5 77 0.0 30 13   101.83   -14 LegendNANA
07:00 -7.8 -11.1 77 0.0 34 10   101.79   -13 LegendNANA
08:00 -7.3 -10.7 77 0.0 36 8   101.78   -11 LegendNANA
09:00 -6.9 -10.3 77 0.0 21 3   101.75   -8 LegendNANA
10:00 -6.7 -10.2 76 0.0 13 6   101.69   -10 LegendNANA
11:00 -6.0 -9.7 75 0.0 17 9   101.64   -10 LegendNANA
12:00 -6.4 -9.4 79 0.0 11 15   101.58   -12 LegendNANA
13:00 -6.4 -9.6 78 0.0 12 17   101.50   -13 LegendNANA
14:00 -6.0 -9.4 77 0.0 12 19   101.43   -13 LegendNANA
15:00 -6.0 -9.1 79 0.0 12 19   101.33   -13 LegendNANA
16:00 -5.3 -7.7 84 0.0 14 18   101.29   -12 LegendNANA
17:00 -5.8 -8.2 83 0.0 14 22   101.23   -13 LegendNANA
18:00 -6.2 -8.7 83 0.0 13 20   101.15   -13 LegendNANA
19:00 -5.8 -8.2 83 0.0 13 23   101.08   -13 LegendNANA
20:00 -6.0 -8.2 85 0.0 12 21   101.00   -13 LegendNANA
21:00 -5.3 -7.3 86 0.0 13 22   100.95   -12 LegendNANA
22:00 -4.9 -6.5 89 0.0 13 21   100.84   -12 LegendNANA
23:00 -4.3 -5.7 90 0.0 13 25   100.74   -11 LegendNANA

Notes on Data Quality.

Legend

  • E = Estimated
  • M = Missing
  • NA = Not Available*
  • [empty] = Indicates an unobserved value
Date modified: